KAL828 CYHZ-CYYZ

Flight info

Callsign KAL828
Flight time N/A
Altitude 36000
Route KELNO Q806 TUKIR RAGID6
Aircraft B77L/H-SDE1E2E3FGHIJ2J3J4J5M1RWXY/LB1D1

Departure

Time 2026-05-04 22:20
Airport Halifax / Stanfield International Airport (CYHZ)

Arrival

Time N/A
Airport Toronto Pearson International Airport (CYYZ)
Time Latitude Longitude Altitude Speed Heading
2026-05-04 21:48 44.86749 -63.53298 457 ft 0 kts 220°
2026-05-04 22:05 44.86752 -63.53294 456 ft 3 kts 220°
2026-05-04 22:05 44.86773 -63.53270 454 ft 4 kts 220°
2026-05-04 22:06 44.86792 -63.53247 454 ft 2 kts 220°
2026-05-04 22:06 44.86810 -63.53228 455 ft 4 kts 205°
2026-05-04 22:06 44.86833 -63.53221 454 ft 4 kts 155°
2026-05-04 22:06 44.86839 -63.53223 455 ft 4 kts 130°
2026-05-04 22:07 44.86822 -63.53194 457 ft 4 kts 130°
2026-05-04 22:07 44.86804 -63.53165 457 ft 4 kts 130°
2026-05-04 22:07 44.86801 -63.53160 457 ft 0 kts 130°
2026-05-04 22:11 44.86795 -63.53151 457 ft 5 kts 129°
2026-05-04 22:11 44.86744 -63.53065 457 ft 17 kts 131°
2026-05-04 22:12 44.86754 -63.52939 454 ft 17 kts 52°
2026-05-04 22:12 44.86868 -63.52761 456 ft 28 kts 40°
2026-05-04 22:12 44.87003 -63.52623 456 ft 24 kts 36°
2026-05-04 22:12 44.87095 -63.52532 456 ft 15 kts 34°
2026-05-04 22:13 44.87181 -63.52448 457 ft 16 kts 34°
2026-05-04 22:13 44.87277 -63.52353 457 ft 18 kts 35°
2026-05-04 22:13 44.87379 -63.52251 455 ft 18 kts 35°
2026-05-04 22:13 44.87483 -63.52151 455 ft 18 kts 34°
2026-05-04 22:14 44.87585 -63.52049 456 ft 18 kts 36°
2026-05-04 22:14 44.87684 -63.51950 456 ft 16 kts 34°
2026-05-04 22:14 44.87777 -63.51860 456 ft 16 kts 35°
2026-05-04 22:14 44.87876 -63.51761 457 ft 20 kts 35°
2026-05-04 22:15 44.88000 -63.51638 457 ft 24 kts 35°
2026-05-04 22:15 44.88140 -63.51499 456 ft 23 kts 34°
2026-05-04 22:15 44.88272 -63.51369 454 ft 23 kts 35°
2026-05-04 22:15 44.88390 -63.51246 455 ft 18 kts 39°
2026-05-04 22:16 44.88509 -63.51219 456 ft 18 kts 348°
2026-05-04 22:16 44.88634 -63.51247 456 ft 18 kts 352°
2026-05-04 22:16 44.88698 -63.51160 456 ft 15 kts 82°
2026-05-04 22:16 44.88715 -63.51018 456 ft 15 kts 79°
2026-05-04 22:17 44.88762 -63.50891 456 ft 16 kts 39°
2026-05-04 22:17 44.88854 -63.50796 455 ft 17 kts 37°
2026-05-04 22:17 44.88953 -63.50697 455 ft 18 kts 34°
2026-05-04 22:17 44.89004 -63.50616 456 ft 5 kts 80°
2026-05-04 22:18 44.89003 -63.50605 456 ft 0 kts 96°
2026-05-04 22:18 44.89002 -63.50601 456 ft 1 kts 103°
2026-05-04 22:19 44.88990 -63.50563 455 ft 11 kts 120°
2026-05-04 22:19 44.88936 -63.50454 455 ft 10 kts 131°
2026-05-04 22:19 44.88874 -63.50444 455 ft 10 kts 214°
2026-05-04 22:19 44.88796 -63.50524 455 ft 29 kts 217°
2026-05-04 22:20 44.88399 -63.50917 456 ft 108 kts 215°
2026-05-04 22:20 44.87641 -63.51662 619 ft 146 kts 221°
2026-05-04 22:20 44.86772 -63.52520 1162 ft 159 kts 219°
2026-05-04 22:20 44.85879 -63.53451 2021 ft 162 kts 224°
2026-05-04 22:21 44.84960 -63.54480 2711 ft 175 kts 224°
2026-05-04 22:21 44.83847 -63.55497 3068 ft 211 kts 218°
2026-05-04 22:21 44.82531 -63.56548 3868 ft 222 kts 217°
2026-05-04 22:21 44.81141 -63.57591 4622 ft 232 kts 219°
2026-05-04 22:22 44.79933 -63.59000 5223 ft 221 kts 244°
2026-05-04 22:22 44.79470 -63.60992 6276 ft 216 kts 263°
2026-05-04 22:22 44.79252 -63.63116 7177 ft 222 kts 263°
2026-05-04 22:22 44.79049 -63.65168 8161 ft 225 kts 263°
2026-05-04 22:23 44.78857 -63.67170 9056 ft 231 kts 263°
2026-05-04 22:23 44.78649 -63.69439 10013 ft 236 kts 263°
2026-05-04 22:23 44.78444 -63.71790 10737 ft 252 kts 263°
2026-05-04 22:23 44.78228 -63.74362 11012 ft 284 kts 263°
2026-05-04 22:24 44.77987 -63.77266 11421 ft 310 kts 263°
2026-05-04 22:24 44.77734 -63.80332 12383 ft 320 kts 263°
2026-05-04 22:24 44.77476 -63.83484 13496 ft 327 kts 263°
2026-05-04 22:24 44.77217 -63.86684 14598 ft 331 kts 263°
2026-05-04 22:25 44.76963 -63.89908 15742 ft 333 kts 263°
2026-05-04 22:25 44.76715 -63.93159 16880 ft 336 kts 263°
2026-05-04 22:25 44.76474 -63.96444 17982 ft 340 kts 263°
2026-05-04 22:25 44.76240 -63.99734 18904 ft 344 kts 264°
2026-05-04 22:26 44.75999 -64.03154 19787 ft 350 kts 264°
2026-05-04 22:26 44.75754 -64.06537 20595 ft 355 kts 264°
2026-05-04 22:26 44.75485 -64.10016 21479 ft 360 kts 264°
2026-05-04 22:26 44.75203 -64.13544 22360 ft 365 kts 264°
2026-05-04 22:27 44.74905 -64.17097 23383 ft 366 kts 264°
2026-05-04 22:27 44.74595 -64.20673 24085 ft 371 kts 264°
2026-05-04 22:27 44.74278 -64.24307 24703 ft 378 kts 264°
2026-05-04 22:27 44.73954 -64.28013 25343 ft 384 kts 264°
2026-05-04 22:28 44.73630 -64.31764 25997 ft 387 kts 264°
2026-05-04 22:28 44.73538 -64.35570 26475 ft 395 kts 272°
2026-05-04 22:28 44.73795 -64.39437 27070 ft 401 kts 276°
2026-05-04 22:28 44.74239 -64.43283 27745 ft 406 kts 279°
2026-05-04 22:29 44.74994 -64.47132 28381 ft 412 kts 285°
2026-05-04 22:29 44.75941 -64.50970 28960 ft 418 kts 287°
2026-05-04 22:29 44.76935 -64.54856 29518 ft 424 kts 287°
2026-05-04 22:29 44.77941 -64.58755 30129 ft 426 kts 287°
2026-05-04 22:30 44.78950 -64.62689 30621 ft 428 kts 287°
2026-05-04 22:30 44.79953 -64.66641 31148 ft 430 kts 287°
2026-05-04 22:30 44.80952 -64.70612 31698 ft 430 kts 286°
2026-05-04 22:30 44.81945 -64.74588 32246 ft 431 kts 286°
2026-05-04 22:31 44.82937 -64.78580 32767 ft 432 kts 286°
2026-05-04 22:31 44.83926 -64.82578 33277 ft 433 kts 285°
2026-05-04 22:31 44.84902 -64.86534 33770 ft 434 kts 285°
2026-05-04 22:31 44.85893 -64.90560 34155 ft 436 kts 286°
2026-05-04 22:32 44.86891 -64.94619 34479 ft 439 kts 286°
2026-05-04 22:32 44.87890 -64.98691 34895 ft 440 kts 286°
2026-05-04 22:32 44.88889 -65.02766 35319 ft 440 kts 286°
2026-05-04 22:32 44.89887 -65.06847 35708 ft 441 kts 286°
2026-05-04 22:33 44.90893 -65.10966 35769 ft 447 kts 286°
2026-05-04 22:33 44.92909 -65.19243 35779 ft 443 kts 286°
2026-05-04 22:34 44.94879 -65.27352 35801 ft 437 kts 286°
2026-05-04 22:34 44.96837 -65.35448 35791 ft 434 kts 286°
2026-05-04 22:35 44.98776 -65.43501 35796 ft 433 kts 286°
2026-05-04 22:35 45.00711 -65.51565 35795 ft 434 kts 286°
2026-05-04 22:36 45.02634 -65.59609 35816 ft 436 kts 286°
2026-05-04 22:36 45.04573 -65.67745 35797 ft 437 kts 286°
2026-05-04 22:37 45.06510 -65.75901 35790 ft 437 kts 286°
2026-05-04 22:37 45.08440 -65.84062 35771 ft 437 kts 286°
2026-05-04 22:38 45.10352 -65.92172 35768 ft 437 kts 286°
2026-05-04 22:38 45.12269 -66.00333 35763 ft 437 kts 286°
2026-05-04 22:39 45.14179 -66.08497 35766 ft 437 kts 286°
2026-05-04 22:39 45.16083 -66.16668 35781 ft 436 kts 285°
2026-05-04 22:40 45.17976 -66.24821 35771 ft 436 kts 285°
2026-05-04 22:40 45.19856 -66.32945 35788 ft 437 kts 285°
2026-05-04 22:41 45.21744 -66.41138 35773 ft 437 kts 285°
2026-05-04 22:41 45.23630 -66.49354 35768 ft 438 kts 285°
2026-05-04 22:42 45.25512 -66.57579 35778 ft 439 kts 285°
2026-05-04 22:42 45.27391 -66.65821 35775 ft 439 kts 286°
2026-05-04 22:43 45.29251 -66.74017 35782 ft 439 kts 286°
2026-05-04 22:43 45.31119 -66.82279 35777 ft 439 kts 286°
2026-05-04 22:44 45.32980 -66.90539 35774 ft 439 kts 285°
2026-05-04 22:44 45.34837 -66.98813 35774 ft 439 kts 286°
2026-05-04 22:45 45.36686 -67.07086 35771 ft 439 kts 286°
2026-05-04 22:45 45.39439 -67.19462 35764 ft 439 kts 285°
2026-05-04 22:46 45.41274 -67.27750 35772 ft 439 kts 285°
2026-05-04 22:46 45.43103 -67.36044 35774 ft 439 kts 286°
2026-05-04 22:47 45.44928 -67.44356 35780 ft 440 kts 286°
2026-05-04 22:47 45.46737 -67.52624 35778 ft 440 kts 286°
2026-05-04 22:48 45.48534 -67.60961 35781 ft 440 kts 284°
2026-05-04 22:48 45.49696 -67.69503 35786 ft 439 kts 278°
2026-05-04 22:49 45.50642 -67.78113 35783 ft 440 kts 279°
2026-05-04 22:49 45.51595 -67.86682 35786 ft 441 kts 279°
2026-05-04 22:50 45.52561 -67.95314 35792 ft 441 kts 279°
2026-05-04 22:50 45.53525 -68.03953 35791 ft 441 kts 279°
2026-05-04 22:51 45.54482 -68.12596 35789 ft 441 kts 279°
2026-05-04 22:51 45.55431 -68.21243 35795 ft 440 kts 279°
2026-05-04 22:52 45.56366 -68.29816 35793 ft 440 kts 279°
2026-05-04 22:52 45.57298 -68.38433 35795 ft 439 kts 279°
2026-05-04 22:53 45.58226 -68.47046 35797 ft 439 kts 279°
2026-05-04 22:53 45.58952 -68.55679 35787 ft 438 kts 275°
2026-05-04 22:54 45.59368 -68.64268 35787 ft 437 kts 275°
2026-05-04 22:54 45.59773 -68.72910 35785 ft 436 kts 275°
2026-05-04 22:55 45.60182 -68.81537 35788 ft 435 kts 275°
2026-05-04 22:55 45.60592 -68.90160 35769 ft 435 kts 275°
2026-05-04 22:56 45.60996 -68.98766 35779 ft 434 kts 275°
2026-05-04 22:56 45.61394 -69.07363 35792 ft 434 kts 275°
2026-05-04 22:57 45.61782 -69.15906 35792 ft 434 kts 275°
2026-05-04 22:57 45.62167 -69.24517 35802 ft 434 kts 275°
2026-05-04 22:58 45.62544 -69.33115 35796 ft 434 kts 275°
2026-05-04 22:58 45.62915 -69.41719 35791 ft 433 kts 275°
2026-05-04 22:59 45.63279 -69.50303 35780 ft 433 kts 275°
2026-05-04 22:59 45.63637 -69.58888 35784 ft 433 kts 275°
2026-05-04 23:00 45.63984 -69.67411 35786 ft 432 kts 275°
2026-05-04 23:00 45.64329 -69.75984 35792 ft 432 kts 275°
2026-05-04 23:01 45.64667 -69.84551 35788 ft 432 kts 275°
2026-05-04 23:01 45.64998 -69.93131 35791 ft 432 kts 275°
2026-05-04 23:02 45.65324 -70.01718 35784 ft 432 kts 275°
2026-05-04 23:02 45.65640 -70.10282 35780 ft 430 kts 276°
2026-05-04 23:03 45.65950 -70.18783 35781 ft 427 kts 276°
2026-05-04 23:03 45.66249 -70.27174 35782 ft 425 kts 276°
2026-05-04 23:04 45.66544 -70.35587 35773 ft 423 kts 276°
2026-05-04 23:04 45.66832 -70.43971 35781 ft 422 kts 276°
2026-05-04 23:05 45.67113 -70.52363 35778 ft 423 kts 276°
2026-05-04 23:05 45.67385 -70.60746 35797 ft 426 kts 276°
2026-05-04 23:06 45.67657 -70.69225 35796 ft 428 kts 276°
2026-05-04 23:06 45.67921 -70.77740 35798 ft 430 kts 275°
2026-05-04 23:07 45.67671 -70.86266 35799 ft 434 kts 269°
2026-05-04 23:07 45.67089 -70.94867 35792 ft 435 kts 269°
2026-05-04 23:08 45.66526 -71.03410 35793 ft 435 kts 269°
2026-05-04 23:08 45.65964 -71.12024 35769 ft 435 kts 269°
2026-05-04 23:09 45.65400 -71.20624 35787 ft 434 kts 269°
2026-05-04 23:09 45.64829 -71.29219 35788 ft 434 kts 269°
2026-05-04 23:10 45.64257 -71.37738 35779 ft 434 kts 269°
2026-05-04 23:10 45.63674 -71.46300 35766 ft 432 kts 269°
2026-05-04 23:11 45.63078 -71.54848 35759 ft 432 kts 269°
2026-05-04 23:11 45.62477 -71.63379 35752 ft 431 kts 269°
2026-05-04 23:12 45.61872 -71.71899 35757 ft 431 kts 269°
2026-05-04 23:12 45.61267 -71.80348 35762 ft 430 kts 269°
2026-05-04 23:13 45.60651 -71.88846 35755 ft 429 kts 269°
2026-05-04 23:13 45.60032 -71.97312 35756 ft 428 kts 269°
2026-05-04 23:14 45.59413 -72.05709 35757 ft 428 kts 269°
2026-05-04 23:14 45.58785 -72.14145 35756 ft 427 kts 268°